Regional Weather Roundup
Issued by NWS Green Bay, WI

Home | Current Version | Previous Version | Text Only | Print | Product List | Glossary On
Versions: 1 2 3 4 5 6 7 8 9 10 11 12 13 14 15 16 17 18 19 20 21 22 23 24 25 26 27 28 29 30 31 32 33 34 35 36 37 38 39 40 41 42 43 44 45 46 47 48 49 50
028
ASUS43 KGRB 260611
RWRGRB

NORTH-CENTRAL AND NORTHEAST WISCONSIN REGIONAL WEATHER ROUNDUP
NATIONAL WEATHER SERVICE GREEN BAY WI
100 AM CDT TUE JUL 26 2016

WIZ005-009-010>012-018-019-260700-
NORTH CENTRAL WISCONSIN

CITY           SKY/WX    TMP DP  RH WIND       PRES   REMARKS
IRONWOOD       CLEAR     63  63 100 W5        30.00S
MANITOWISH WTR CLEAR     59  59 100 CALM      30.05S FOG
ARBOR VITAE    CLEAR     63  60  91 CALM      30.06S
EAGLE RIVER    CLEAR     60  60 100 SW5       30.05S
LAND O LAKES   CLEAR     56  56  99 CALM      30.06S
RHINELANDER    MOCLDY    63  60  90 W5        30.07S
PHILLIPS       CLEAR     61  60  96 CALM      30.05S
ANTIGO         CLEAR     59  58  96 CALM      30.08R
TOMAHAWK       CLEAR     58  56  94 CALM      30.07S
MERRILL        CLEAR     59  59 100 CALM      30.07S
$$

WIZ013-073-260700-
NORTHEAST WISCONSIN

CITY           SKY/WX    TMP DP  RH WIND       PRES   REMARKS
IRON MOUNTAIN  CLEAR     59  54  83 CALM      30.01S
MARINETTE      CLEAR    N/A N/A N/A CALM      30.02R
OCONTO         CLEAR    N/A N/A N/A CALM      30.01S
$$

WIZ017-030-035>037-045-260700-
CENTRAL WISCONSIN

CITY           SKY/WX    TMP DP  RH WIND       PRES   REMARKS
MEDFORD        CLEAR     58  58 100 CALM      30.07S
WAUSAU         CLEAR     65  62  90 CALM      30.05R
MOSINEE        CLEAR     64  61  88 W5        30.07S
MARSHFIELD     CLEAR     65  60  84 CALM      30.06S
WISC RAPIDS    CLEAR     65  61  87 CALM      30.07R
STEVENS POINT  CLEAR     61  60  97 CALM      30.06S
WAUPACA        CLEAR     67  65  92 CALM      30.05R
SHAWANO        CLEAR     65  62  91 CALM      30.04R
CLINTONVILLE   CLEAR     66  61  82 W5        30.04R
WAUTOMA        CLEAR     63  62  97 CALM      30.06R
$$

WIZ038-039-048-051-260700-
FOX VALLEY

CITY           SKY/WX    TMP DP  RH WIND       PRES   REMARKS
NWS GREEN BAY  CLEAR     67  64  90 W7        30.02R
APPLETON       CLEAR     66  59  77 W9        30.03R
OSHKOSH        CLEAR     69  61  75 W5        30.03S
FOND DU LAC    CLEAR     70  61  73 W6        30.04R
$$

WIZ022-050-052-260700-
EAST CENTRAL WISCONSIN

CITY           SKY/WX    TMP DP  RH WIND       PRES   REMARKS
EPHRAIM        FAIR      68  63  85 CALM      30.00S
WASHINGTON ISL NOT AVBL
STURGEON BAY   CLEAR     69  64  84 CALM      30.03R
MANITOWOC      CLEAR     70  62  76 MISG      30.02S
SHEBOYGAN      CLEAR     64  61  90 W3        30.03S
$$

LMZ563-521-522-541>543-260700-
LAKESHORE

STATION/POSITION TIME  TEMP    WIND        PRES    VSBY  WAVE
                       AIR SEA DIR/SP/G                  HT/PER
                 (UTC) (F)     (DEG/KT/KT) (MB)    (MI)  (FT/S)
SHEBOYGAN LKSHOR 0600   74     280/  8/ 10 1016.5R
KEWAUNEE LKSHORE 0500   69     300/  4/  6 1015.5R
ALGOMA MARINA    0513             CALM       N/A
NORTHPORT PIER   0500   70      CALM  /  1 1015.6R
N MID LAKE BUOY  0550   70 70  170/  4/  6 1015.2R         1
S GREEN BAY BUOY 0500   73 74  280/  8/  8   N/A
SISTER BAY LKSHO 0521   69        CALM       N/A
CHAMBERS ISLAND  0500   70     260/  4/  6 1015.9R
MENOMINEE LKSHOR 0500   74     290/  2/  5 1015.1R
$$




USA.gov is the U.S. government's official web portal to all federal, state and local government web resources and services.